(172723) = 2004 BL108

Discovered at Catalina on 2004-01-28 by CSS.

Orbit

Orbit type: Main Belt

Note: WebGL enabled browser required.

epoch2024-03-31.0
epoch JD2460400.5
perihelion date2023-11-14.54688
perihelion JD2460263.04688
argument of perihelion (°)338.39001
ascending node (°)70.53377
inclination (°)4.74984
eccentricity0.2288700
perihelion distance (AU)1.9751947
Tisserand w.r.t. Jupiter3.4
ΔV w.r.t. Earth (km/sec)9.0
semimajor axis (AU)2.5614289
mean anomaly (°)33.04723
mean daily motion (°/day)0.24042540
aphelion distance (AU)3.148
period (years)4.1
P-vector [x]0.65587004
P-vector [y]0.70414845
P-vector [z]0.27204680
Q-vector [x]-0.75082571
Q-vector [y]0.57124393
Q-vector [z]0.33157371
absolute magnitude16.02
phase slope0.15
uncertainty0
referenceMPEC 2024-F74
observations used807
oppositions16
arc length (days)8813
first opposition used2000
last opposition used2024
residual rms (arc-secs)0.66
perturbers coarse indicatorM-v
perturbers precise indicator003Ek
first observation date used2000-02-03.0
last observation date used2024-03-21.0
computer nameMPCLINUX
JD of orbit computation2456877.892079
perihelion JD uncertainty (days)8.7558E-05
argument of perihelion uncertainty (°)7.9531E-05
ascending node uncertainty (°)7.6841E-05
inclination uncertainty (°)5.6926E-06
eccentricity uncertainty 7.3204E-08
perihelion distance uncertainty (AU)1.9559E-07
Minimum Orbit Intersection Distances (in AU)
for orbit epoch: 2460400.5, reference: E2024-F74
Mercury1.65869
Venus1.25247
Earth0.98675
Mars0.479
Jupiter2.23683
Saturn6.65066
Uranus15.5301
Neptune27.4787

Observations

817 total observations over interval: 2000 02 03.30559 – 2024 03 21.137270
These data are available for download (format description).

Date (UT) J2000 RA J2000 Dec Magn Location Ref
2000 02 03.30559 10 50 31.75 +15 16 59.8 19.4   704 – Lincoln Laboratory ETS, New Mexico MPS 133334
2000 02 03.31985 10 50 31.20 +15 17 04.6 19.3   704 – Lincoln Laboratory ETS, New Mexico MPS 133334
2000 02 03.33410 10 50 30.58 +15 17 09.0 19.7   704 – Lincoln Laboratory ETS, New Mexico MPS 133334
2000 02 03.36298 10 50 29.17 +15 17 18.8 19.3   704 – Lincoln Laboratory ETS, New Mexico MPS 133334
2002 08 11.42678 21 31 50.84 -22 31 21.3 19.6   644 – Palomar Mountain/NEAT MPS 133334
2002 08 11.43749 21 31 50.22 -22 31 24.7 19.3   644 – Palomar Mountain/NEAT MPS 133334
2002 08 11.44822 21 31 49.56 -22 31 28.3 19.6   644 – Palomar Mountain/NEAT MPS 133334
2004 01 18.35428 10 04 20.68 +19 09 20.4 18.9   644 – Palomar Mountain/NEAT MPS 98898
2004 01 18.37613 10 04 19.76 +19 09 28.5 18.9   644 – Palomar Mountain/NEAT MPS 98898
2004 01 18.39756 10 04 18.84 +19 09 36.4 19.0   644 – Palomar Mountain/NEAT MPS 98898
2004 01 19.40699 10 03 37.28 +19 15 50.6 19.6 V 703 – Catalina Sky Survey MPS 100884
2004 01 19.41841 10 03 36.83 +19 15 54.9 19.7 V 703 – Catalina Sky Survey MPS 100884
2004 01 19.42986 10 03 36.25 +19 15 58.0 18.6 V 703 – Catalina Sky Survey MPS 100884
2004 01 19.44122 10 03 35.67 +19 15 58.4 18.1 V 703 – Catalina Sky Survey MPS 100884
2004 01 28.26146 09 56 30.88 +20 12 09.2 19.3 V 703 – Catalina Sky Survey MPS 98898
2004 01 28.27211 09 56 30.17 +20 12 12.5 19.0 V 703 – Catalina Sky Survey MPS 98898
2004 01 28.28278 09 56 29.52 +20 12 18.4 19.0 V 703 – Catalina Sky Survey MPS 98898
2004 01 28.29347 09 56 29.06 +20 12 20.5 19.4 V 703 – Catalina Sky Survey MPS 98898
2004 01 30.33566 09 54 37.21 +20 25 25.1 19.0   704 – Lincoln Laboratory ETS, New Mexico MPS 98898
2004 01 30.34800 09 54 36.46 +20 25 29.3 19.4   704 – Lincoln Laboratory ETS, New Mexico MPS 98898
2004 01 30.36070 09 54 35.73 +20 25 34.7 19.4   704 – Lincoln Laboratory ETS, New Mexico MPS 98898
2004 01 30.37290 09 54 34.98 +20 25 39.2 19.0   704 – Lincoln Laboratory ETS, New Mexico MPS 98898
2004 01 30.38558 09 54 34.27 +20 25 45.4 20.1   704 – Lincoln Laboratory ETS, New Mexico MPS 98898
2004 02 10.38907 09 43 44.49 +21 31 42.5 18.9   644 – Palomar Mountain/NEAT MPS 98898
2004 02 10.41002 09 43 43.18 +21 31 49.3 18.7   644 – Palomar Mountain/NEAT MPS 98898
2004 02 10.43100 09 43 41.84 +21 31 56.8 18.5   644 – Palomar Mountain/NEAT MPS 98898
2004 02 14.31058 09 39 46.79 +21 52 14.1 19.0 R 926 – Tenagra II Observatory, Nogales MPS 98898
2004 02 14.31682 09 39 46.35 +21 52 16.1 19.5 R 926 – Tenagra II Observatory, Nogales MPS 98898
2004 02 14.32179 09 39 45.98 +21 52 17.9 19.2 R 926 – Tenagra II Observatory, Nogales MPS 98898
2004 02 15.27069 09 38 49.09 +21 56 57.1 20.1   704 – Lincoln Laboratory ETS, New Mexico MPS 98898
2004 02 15.28228 09 38 48.28 +21 57 00.9 20.5   704 – Lincoln Laboratory ETS, New Mexico MPS 98898
2004 02 15.29394 09 38 47.59 +21 57 02.9 20.6   704 – Lincoln Laboratory ETS, New Mexico MPS 98898
2004 02 15.30554 09 38 46.83 +21 57 07.8 20.5   704 – Lincoln Laboratory ETS, New Mexico MPS 98898
2004 02 15.31724 09 38 46.14 +21 57 10.4 20.0   704 – Lincoln Laboratory ETS, New Mexico MPS 98898
2004 02 16.20083 09 37 53.61 +22 01 21.7 20.1 V 691 – Steward Observatory, Kitt Peak-Spacewatch MPS 98898
2004 02 16.22802 09 37 51.94 +22 01 29.5 20.2 V 691 – Steward Observatory, Kitt Peak-Spacewatch MPS 98898
2004 02 16.25737 09 37 50.13 +22 01 37.8 19.7 V 691 – Steward Observatory, Kitt Peak-Spacewatch MPS 98898
2004 02 16.31689 09 37 46.46 +22 01 54.7 19.6 R 926 – Tenagra II Observatory, Nogales MPS 98898
2004 02 16.32164 09 37 46.15 +22 01 56.4 19.5 R 926 – Tenagra II Observatory, Nogales MPS 98898
2004 02 16.32644 09 37 45.84 +22 01 57.5 19.3 R 926 – Tenagra II Observatory, Nogales MPS 98898
2004 02 16.88131 09 37 13.14 +22 04 29.9 18.9 R 246 – Klet Observatory-KLENOT MPS 98898
2004 02 16.88271 09 37 13.05 +22 04 30.1 19.0 R 246 – Klet Observatory-KLENOT MPS 98898
2004 02 16.88513 09 37 12.86 +22 04 31.0   246 – Klet Observatory-KLENOT MPS 98898
2004 02 16.88836 09 37 12.68 +22 04 31.2   246 – Klet Observatory-KLENOT MPS 98898
2004 02 16.88942 09 37 12.60 +22 04 32.2   246 – Klet Observatory-KLENOT MPS 98898
2004 02 16.89310 09 37 12.42 +22 04 33.0   246 – Klet Observatory-KLENOT MPS 98898
2004 02 16.89582 09 37 12.26 +22 04 33.5   246 – Klet Observatory-KLENOT MPS 98898
2004 02 16.89695 09 37 12.17 +22 04 33.7   246 – Klet Observatory-KLENOT MPS 98898
2004 02 16.89822 09 37 12.10 +22 04 34.3   246 – Klet Observatory-KLENOT MPS 98898
2004 02 16.89965 09 37 11.97 +22 04 34.8   246 – Klet Observatory-KLENOT MPS 98898
2004 02 17.23429 09 36 52.24 +22 06 07.4 19.3 V 291 – LPL/Spacewatch II MPS 98898
2004 02 17.24252 09 36 51.73 +22 06 10.2 19.4 V 291 – LPL/Spacewatch II MPS 98898
2004 02 17.25785 09 36 50.77 +22 06 13.7 19.7 V 291 – LPL/Spacewatch II MPS 98898
2004 02 17.91096 09 36 12.30 +22 09 08.3   246 – Klet Observatory-KLENOT MPS 98898
2004 02 17.91170 09 36 12.24 +22 09 08.4   246 – Klet Observatory-KLENOT MPS 98898
2004 02 17.91249 09 36 12.21 +22 09 08.5   246 – Klet Observatory-KLENOT MPS 98898
2004 02 17.91321 09 36 12.15 +22 09 08.8   246 – Klet Observatory-KLENOT MPS 98898
2004 02 17.91497 09 36 12.06 +22 09 09.3   246 – Klet Observatory-KLENOT MPS 98898
2004 02 17.91666 09 36 11.96 +22 09 09.5   246 – Klet Observatory-KLENOT MPS 98898
2004 02 17.91907 09 36 11.80 +22 09 10.1   246 – Klet Observatory-KLENOT MPS 98898
2004 02 17.91992 09 36 11.77 +22 09 10.6   246 – Klet Observatory-KLENOT MPS 98898
2005 04 16.42112 15 12 08.68 -14 31 00.2 20.7 V 691 – Steward Observatory, Kitt Peak-Spacewatch MPS 133334
2005 04 16.43967 15 12 07.80 -14 30 57.7 21.2 V 691 – Steward Observatory, Kitt Peak-Spacewatch MPS 133334
2005 04 16.45794 15 12 06.91 -14 30 54.6 21.1 V 691 – Steward Observatory, Kitt Peak-Spacewatch MPS 133334
2005 05 03.25829 14 57 41.29 -13 43 00.7 20.8 V 691 – Steward Observatory, Kitt Peak-Spacewatch MPS 133334
2005 05 03.27572 14 57 40.32 -13 42 57.2 20.4 V 691 – Steward Observatory, Kitt Peak-Spacewatch MPS 133334
2005 05 03.29301 14 57 39.32 -13 42 54.2 20.7 V 691 – Steward Observatory, Kitt Peak-Spacewatch MPS 133334
2005 05 10.21834 14 51 16.36 -13 22 20.5 20.6 V 691 – Steward Observatory, Kitt Peak-Spacewatch MPS 134002
2005 05 10.23623 14 51 15.34 -13 22 17.3 20.6 V 691 – Steward Observatory, Kitt Peak-Spacewatch MPS 134002
2005 05 10.25410 14 51 14.36 -13 22 13.9 20.8 V 691 – Steward Observatory, Kitt Peak-Spacewatch MPS 134002
2005 05 11.33825 14 50 14.70 -13 19 05.7 21.1 R G96 – Mt. Lemmon Survey MPS 134002
2005 05 11.34499 14 50 14.33 -13 19 05.2 19.3 R G96 – Mt. Lemmon Survey MPS 134002
2005 05 11.35170 14 50 13.94 -13 19 03.8 20.1 R G96 – Mt. Lemmon Survey MPS 134002
2005 05 11.35843 14 50 13.64 -13 19 02.3 19.9 R G96 – Mt. Lemmon Survey MPS 134002
2006 08 14.16831 20 19 16.09 -26 19 48.0 19.1 R 644 – Palomar Mountain/NEAT MPS 177029
2006 08 14.18871 20 19 14.90 -26 19 51.4 19.2 R 644 – Palomar Mountain/NEAT MPS 177029
2006 08 14.20907 20 19 13.76 -26 19 55.2 19.0 R 644 – Palomar Mountain/NEAT MPS 177029
2006 08 15.16933 20 18 21.68 -26 22 42.9 19.0 R 644 – Palomar Mountain/NEAT MPS 176042
2006 08 15.19206 20 18 20.40 -26 22 47.1 19.1 R 644 – Palomar Mountain/NEAT MPS 176042
2006 08 15.21250 20 18 19.26 -26 22 50.5 19.4 R 644 – Palomar Mountain/NEAT MPS 176042
2007 11 12.41414 08 56 18.52 +20 34 34.6 19.7 V G96 – Mt. Lemmon Survey MPS 226844
2007 11 12.42101 08 56 18.92 +20 34 33.8 19.8 V G96 – Mt. Lemmon Survey MPS 226844
2007 11 12.42779 08 56 19.32 +20 34 33.4 19.7 V G96 – Mt. Lemmon Survey MPS 226844
2007 11 12.43459 08 56 19.75 +20 34 33.1 19.6 V G96 – Mt. Lemmon Survey MPS 226844
2007 11 15.45956 08 59 19.01 +20 31 36.5 20.0   704 – Lincoln Laboratory ETS, New Mexico MPS 226844
2007 11 15.47230 08 59 19.69 +20 31 35.6 20.3   704 – Lincoln Laboratory ETS, New Mexico MPS 226844
2007 11 15.48504 08 59 20.44 +20 31 35.2 20.2   704 – Lincoln Laboratory ETS, New Mexico MPS 226844
2007 11 15.49779 08 59 20.97 +20 31 35.3 20.0   704 – Lincoln Laboratory ETS, New Mexico MPS 226844
2007 11 20.39589 09 03 40.70 +20 29 06.3 20.5   704 – Lincoln Laboratory ETS, New Mexico MPS 228990
